,,Stat5,,Stat1,,Stat2,,Stat3,,Stat4,,Wind1,,Wind1,
time,status,PA1M_AVG,status,PR1M_SUM,status,RH1M_AVG,status,SR1M_AVG,status,TA1M_AVG,status,W1dAve1m,status,W1sAve1m,
2003-08-09, 00:00:01,VALID,917.556,VALID,0,VALID,100,VALID,0,VALID,19.4123,VALID,55,VALID,1.01317,
2003-08-09, 00:01:00,VALID,917.552,VALID,0,VALID,100,VALID,0,VALID,19.4054,VALID,58,VALID,0.848273,
2003-08-09, 00:02:00,VALID,917.556,VALID,0,VALID,100,VALID,0,VALID,19.4061,VALID,64,VALID,0.922081,
2003-08-09, 00:03:01,VALID,917.554,VALID,0,VALID,100,VALID,0.0169808,VALID,19.4091,VALID,80,VALID,0.732887,
2003-08-09, 00:04:00,VALID,917.558,VALID,0,VALID,100,VALID,-0.0169808,VALID,19.396,VALID,85,VALID,0.632401,
2003-08-09, 00:05:01,VALID,917.557,VALID,0,VALID,100,VALID,0,VALID,19.3962,VALID,85,VALID,0.475761,
2003-08-09, 00:06:00,VALID,917.548,VALID,0,VALID,100,VALID,0.0169808,VALID,19.4024,VALID,88,VALID,0.439904,
2003-08-09, 00:07:01,VALID,917.538,VALID,0,VALID,100,VALID,0,VALID,19.4253,VALID,89,VALID,0.371711,
2003-08-09, 00:08:01,VALID,917.517,VALID,0,VALID,100,VALID,0.0169808,VALID,19.4409,VALID,89,VALID,0.324314,
2003-08-09, 00:09:01,VALID,917.493,VALID,0,VALID,100,VALID,0,VALID,19.4836,VALID,62,VALID,0.438301,
2003-08-09, 00:10:01,VALID,917.489,VALID,0,VALID,100,VALID,0,VALID,19.4769,VALID,75,VALID,0.636719,
2003-08-09, 00:11:01,VALID,917.484,VALID,0,VALID,100,VALID,0,VALID,19.4869,VALID,78,VALID,0.671224,
2003-08-09, 00:12:01,VALID,917.484,VALID,0,VALID,100,VALID,0.0339617,VALID,19.4993,VALID,78,VALID,0.799959,
2003-08-09, 00:13:00,VALID,917.488,VALID,0,VALID,100,VALID,0.0509425,VALID,19.5249,VALID,82,VALID,0.829911,
2003-08-09, 00:14:01,VALID,917.493,VALID,0,VALID,100,VALID,-0.0169808,VALID,19.538,VALID,98,VALID,0.701982,
2003-08-09, 00:15:00,VALID,917.481,VALID,0,VALID,100,VALID,0.0169808,VALID,19.5703,VALID,128,VALID,0.437711,
2003-08-09, 00:16:01,VALID,917.476,VALID,0,VALID,100,VALID,0.0169808,VALID,19.5867,VALID,133,VALID,0.59375,
2003-08-09, 00:17:01,VALID,917.466,VALID,0,VALID,100,VALID,0,VALID,19.5927,VALID,144,VALID,0.815667,
2003-08-09, 00:18:01,VALID,917.452,VALID,0,VALID,100,VALID,0,VALID,19.62,VALID,150,VALID,0.878711,
2003-08-09, 00:19:00,VALID,917.452,VALID,0,VALID,100,VALID,0,VALID,19.6188,VALID,146,VALID,0.815584,
2003-08-09, 00:20:01,VALID,917.458,VALID,0,VALID,100,VALID,0,VALID,19.6317,VALID,155,VALID,0.597656,
2003-08-09, 00:21:01,VALID,917.435,VALID,0.2,VALID,100,VALID,0.0339617,VALID,19.6476,VALID,161,VALID,0.03125,
2003-08-09, 00:22:00,VALID,917.435,VALID,0,VALID,100,VALID,0,VALID,19.6838,VALID,138,VALID,0.247944,
2003-08-09, 00:23:01,VALID,917.42,VALID,0,VALID,100,VALID,0,VALID,19.6642,VALID,101,VALID,0.492188,
2003-08-09, 00:24:01,VALID,917.392,VALID,0,VALID,100,VALID,0.0169808,VALID,19.6381,VALID,73,VALID,0.345084,
2003-08-09, 00:25:01,VALID,917.371,VALID,0,VALID,100,VALID,-0.0849042,VALID,19.6558,VALID,76,VALID,0.306799,
2003-08-09, 00:26:01,VALID,917.351,VALID,0,VALID,100,VALID,-0.0849042,VALID,19.6657,VALID,82,VALID,0.282072,
2003-08-09, 00:27:01,VALID,917.336,VALID,0,VALID,100,VALID,-0.101885,VALID,19.6816,VALID,91,VALID,0.200452,
2003-08-09, 00:28:01,VALID,917.318,VALID,0,VALID,100,VALID,-0.101885,VALID,19.7042,VALID,90,VALID,0.0992759,
2003-08-09, 00:29:01,VALID,917.299,VALID,0,VALID,100,VALID,-0.101885,VALID,19.7107,VALID,90,VALID,0,
2003-08-09, 00:30:01,VALID,917.289,VALID,0,VALID,100,VALID,-0.0849042,VALID,19.7005,VALID,90,VALID,0,
2003-08-09, 00:31:01,VALID,917.269,VALID,0,VALID,100,VALID,-0.101885,VALID,19.7074,VALID,90,VALID,0,
2003-08-09, 00:32:01,VALID,917.254,VALID,0,VALID,100,VALID,-0.101885,VALID,19.7271,VALID,90,VALID,0,
2003-08-09, 00:33:01,VALID,917.221,VALID,0,VALID,100,VALID,-0.0849042,VALID,19.7236,VALID,90,VALID,0.304911,
2003-08-09, 00:34:01,VALID,917.189,VALID,0,VALID,100,VALID,-0.101885,VALID,19.7238,VALID,90,VALID,0.355674,
2003-08-09, 00:35:01,VALID,917.168,VALID,0,VALID,100,VALID,-0.101885,VALID,19.7233,VALID,80,VALID,0.311655,
2003-08-09, 00:36:01,VALID,917.165,VALID,0,VALID,100,VALID,-0.0849042,VALID,19.7367,VALID,77,VALID,0.36472,
2003-08-09, 00:37:01,VALID,917.16,VALID,0,VALID,100,VALID,-0.101885,VALID,19.7395,VALID,52,VALID,0.468117,
2003-08-09, 00:38:01,VALID,917.154,VALID,0,VALID,100,VALID,-0.0849042,VALID,19.7561,VALID,53,VALID,0.362109,
2003-08-09, 00:39:01,VALID,917.151,VALID,0,VALID,100,VALID,-0.0849042,VALID,19.7432,VALID,92,VALID,0.449836,
2003-08-09, 00:40:01,VALID,917.149,VALID,0,VALID,100,VALID,-0.101885,VALID,19.7263,VALID,86,VALID,0.434679,
2003-08-09, 00:41:01,VALID,917.152,VALID,0,VALID,100,VALID,-0.101885,VALID,19.743,VALID,86,VALID,0.343316,
2003-08-09, 00:42:01,VALID,917.14,VALID,0,VALID,100,VALID,-0.101885,VALID,19.7298,VALID,86,VALID,0.393298,
2003-08-09, 00:43:01,VALID,917.121,VALID,0,VALID,100,VALID,-0.101885,VALID,19.7325,VALID,86,VALID,0.316406,
2003-08-09, 00:44:00,VALID,917.097,VALID,0,VALID,100,VALID,-0.0679233,VALID,19.7594,VALID,86,VALID,0.245998,
2003-08-09, 00:45:00,VALID,917.076,VALID,0,VALID,100,VALID,-0.0509425,VALID,19.7422,VALID,96,VALID,0.217272,
2003-08-09, 00:46:00,VALID,917.066,VALID,0,VALID,100,VALID,-0.0849042,VALID,19.7526,VALID,95,VALID,0.0555099,
2003-08-09, 00:47:00,VALID,917.073,VALID,0,VALID,100,VALID,-0.0679233,VALID,19.7815,VALID,85,VALID,0.00740132,
2003-08-09, 00:48:00,VALID,917.076,VALID,0,VALID,100,VALID,-0.0509425,VALID,19.7839,VALID,87,VALID,0.193788,
2003-08-09, 00:49:00,VALID,917.086,VALID,0,VALID,100,VALID,-0.101885,VALID,19.7877,VALID,89,VALID,0.223067,
2003-08-09, 00:50:00,VALID,917.104,VALID,0,VALID,100,VALID,-0.0679233,VALID,19.7939,VALID,84,VALID,0.323396,
2003-08-09, 00:51:00,VALID,917.114,VALID,0,VALID,100,VALID,-0.0849042,VALID,19.8232,VALID,47,VALID,0.481554,
2003-08-09, 00:52:00,VALID,917.12,VALID,0,VALID,100,VALID,-0.0509425,VALID,19.8525,VALID,41,VALID,0.196368,
2003-08-09, 00:53:00,VALID,917.116,VALID,0,VALID,100,VALID,-0.0679233,VALID,19.8622,VALID,41,VALID,0.115402,
2003-08-09, 00:54:00,VALID,917.103,VALID,0,VALID,100,VALID,-0.101885,VALID,19.8724,VALID,41,VALID,0,
2003-08-09, 00:55:00,VALID,917.102,VALID,0,VALID,100,VALID,0.0339617,VALID,19.8505,VALID,41,VALID,0.136191,
2003-08-09, 00:56:00,VALID,917.088,VALID,0,VALID,100,VALID,0.0339617,VALID,19.8277,VALID,43,VALID,0.445107,
2003-08-09, 00:57:00,VALID,917.067,VALID,0,VALID,100,VALID,0,VALID,19.8346,VALID,63,VALID,0.587838,
2003-08-09, 00:58:00,VALID,917.058,VALID,0,VALID,100,VALID,0.0169808,VALID,19.8381,VALID,62,VALID,0.693555,
2003-08-09, 00:59:00,VALID,917.047,VALID,0,VALID,100,VALID,0.0169808,VALID,19.8314,VALID,46,VALID,0.545025,
2003-08-09, 01:00:00,VALID,917.05,VALID,0,VALID,100,VALID,0,VALID,19.851,VALID,29,VALID,0.419271,
2003-08-09, 01:01:00,VALID,917.048,VALID,0,VALID,100,VALID,0,VALID,19.8475,VALID,30,VALID,0.232205,
2003-08-09, 01:02:00,VALID,917.039,VALID,0,VALID,100,VALID,0.0339617,VALID,19.8505,VALID,30,VALID,0.245271,
2003-08-09, 01:03:00,VALID,917.039,VALID,0,VALID,100,VALID,0.0169808,VALID,19.8801,VALID,30,VALID,0.0870226,
2003-08-09, 01:04:00,VALID,917.038,VALID,0,VALID,100,VALID,0.0169808,VALID,19.8828,VALID,30,VALID,0.0600229,
2003-08-09, 01:05:00,VALID,917.028,VALID,0,VALID,100,VALID,0.0339617,VALID,19.8831,VALID,30,VALID,0.111275,
2003-08-09, 01:06:00,VALID,917.018,VALID,0,VALID,100,VALID,0.0169808,VALID,19.886,VALID,329,VALID,0.176809,
2003-08-09, 01:07:00,VALID,916.992,VALID,0,VALID,100,VALID,0.0339617,VALID,19.8731,VALID,2,VALID,0.143503,
2003-08-09, 01:08:00,VALID,916.99,VALID,0,VALID,100,VALID,0.0339617,VALID,19.8701,VALID,2,VALID,0.30564,
2003-08-09, 01:09:00,VALID,916.978,VALID,0,VALID,100,VALID,0.0339617,VALID,19.8597,VALID,10,VALID,0.444901,
2003-08-09, 01:10:00,VALID,916.968,VALID,0,VALID,100,VALID,0.0169808,VALID,19.8667,VALID,13,VALID,0.158306,
2003-08-09, 01:11:00,VALID,916.947,VALID,0,VALID,100,VALID,0.0339617,VALID,19.8766,VALID,28,VALID,0.440321,
2003-08-09, 01:12:00,VALID,916.942,VALID,0,VALID,100,VALID,0.0509425,VALID,19.8704,VALID,21,VALID,0.375633,
2003-08-09, 01:13:00,VALID,916.936,VALID,0,VALID,100,VALID,0.0169808,VALID,19.8664,VALID,38,VALID,0.404018,
2003-08-09, 01:14:00,VALID,916.919,VALID,0,VALID,100,VALID,0,VALID,19.8766,VALID,19,VALID,0.575247,
2003-08-09, 01:15:00,VALID,916.892,VALID,0,VALID,100,VALID,0.0169808,VALID,19.8602,VALID,34,VALID,0.843117,
2003-08-09, 01:16:00,VALID,916.862,VALID,0,VALID,100,VALID,0.0509425,VALID,19.8605,VALID,37,VALID,0.806949,
2003-08-09, 01:17:00,VALID,916.844,VALID,0,VALID,99.998,VALID,-0.0339617,VALID,19.8734,VALID,45,VALID,0.865498,
2003-08-09, 01:18:00,VALID,916.823,VALID,0,VALID,99.9863,VALID,0.0169808,VALID,19.8637,VALID,22,VALID,0.467969,
2003-08-09, 01:19:00,VALID,916.808,VALID,0,VALID,99.9812,VALID,0,VALID,19.8701,VALID,353,VALID,0.378289,
2003-08-09, 01:20:00,VALID,916.807,VALID,0,VALID,99.9596,VALID,0,VALID,19.8833,VALID,360,VALID,0.36263,
2003-08-09, 01:21:00,VALID,916.791,VALID,0,VALID,99.9456,VALID,0.0169808,VALID,19.8865,VALID,360,VALID,0,
2003-08-09, 01:22:00,VALID,916.784,VALID,0,VALID,99.9379,VALID,0.0169808,VALID,19.8828,VALID,360,VALID,0.0158306,
2003-08-09, 01:23:00,VALID,916.762,VALID,0,VALID,99.9201,VALID,0,VALID,19.8895,VALID,360,VALID,0,
2003-08-09, 01:24:00,VALID,916.737,VALID,0,VALID,99.9163,VALID,0,VALID,19.8726,VALID,360,VALID,0,
2003-08-09, 01:25:00,VALID,916.744,VALID,0,VALID,99.9138,VALID,-0.101885,VALID,19.9072,VALID,360,VALID,0.128167,
2003-08-09, 01:26:00,VALID,916.733,VALID,0,VALID,99.896,VALID,-0.101885,VALID,19.894,VALID,23,VALID,0.320929,
2003-08-09, 01:27:00,VALID,916.722,VALID,0,VALID,99.868,VALID,-0.101885,VALID,19.8975,VALID,53,VALID,0.494655,
2003-08-09, 01:28:00,VALID,916.72,VALID,0,VALID,99.8299,VALID,-0.101885,VALID,19.8813,VALID,54,VALID,0.711319,
2003-08-09, 01:29:00,VALID,916.708,VALID,0,VALID,99.8095,VALID,-0.0679233,VALID,19.8776,VALID,51,VALID,0.547286,
2003-08-09, 01:30:00,VALID,916.689,VALID,0,VALID,99.7815,VALID,-0.0849042,VALID,19.8716,VALID,22,VALID,0.516859,
2003-08-09, 01:31:00,VALID,916.676,VALID,0,VALID,99.7574,VALID,-0.0679233,VALID,19.8652,VALID,28,VALID,0.74783,
2003-08-09, 01:32:00,VALID,916.674,VALID,0,VALID,99.7358,VALID,-0.101885,VALID,19.8784,VALID,45,VALID,0.661318,
2003-08-09, 01:33:00,VALID,916.678,VALID,0,VALID,99.718,VALID,-0.118866,VALID,19.8784,VALID,53,VALID,0.586607,
2003-08-09, 01:34:00,VALID,916.67,VALID,0,VALID,99.6735,VALID,-0.0849042,VALID,19.8749,VALID,53,VALID,0.604235,
2003-08-09, 01:35:00,VALID,916.667,VALID,0,VALID,99.6137,VALID,-0.0849042,VALID,19.8684,VALID,59,VALID,0.590794,
2003-08-09, 01:36:00,VALID,916.671,VALID,0,VALID,99.5463,VALID,-0.101885,VALID,19.849,VALID,77,VALID,0.648849,
2003-08-09, 01:37:00,VALID,916.661,VALID,0,VALID,99.4891,VALID,-0.101885,VALID,19.8329,VALID,86,VALID,0.528505,
2003-08-09, 01:38:00,VALID,916.665,VALID,0,VALID,99.4942,VALID,-0.101885,VALID,19.8396,VALID,86,VALID,0.325781,
2003-08-09, 01:39:00,VALID,916.669,VALID,0,VALID,99.4636,VALID,-0.0849042,VALID,19.8493,VALID,120,VALID,0.41653,
2003-08-09, 01:40:00,VALID,916.668,VALID,0,VALID,99.4535,VALID,0.0679233,VALID,19.8532,VALID,151,VALID,0.103516,
2003-08-09, 01:41:00,VALID,916.688,VALID,0,VALID,99.4229,VALID,0.0509425,VALID,19.8759,VALID,151,VALID,0.0195313,
2003-08-09, 01:42:00,VALID,916.716,VALID,0,VALID,99.3823,VALID,0.0169808,VALID,19.889,VALID,151,VALID,0,
2003-08-09, 01:43:00,VALID,916.714,VALID,0,VALID,99.3466,VALID,0.0339617,VALID,19.9024,VALID,151,VALID,0.236545,
2003-08-09, 01:44:00,VALID,916.705,VALID,0,VALID,99.2907,VALID,0.0509425,VALID,19.8987,VALID,150,VALID,0.464939,
2003-08-09, 01:45:00,VALID,916.703,VALID,0,VALID,99.2716,VALID,0.0339617,VALID,19.9019,VALID,134,VALID,0.411951,
2003-08-09, 01:46:00,VALID,916.71,VALID,0,VALID,99.1991,VALID,0.0849042,VALID,19.9022,VALID,118,VALID,0.366365,
2003-08-09, 01:47:00,VALID,916.717,VALID,0,VALID,99.1737,VALID,0.0169808,VALID,19.8826,VALID,104,VALID,0.409745,
2003-08-09, 01:48:00,VALID,916.722,VALID,0,VALID,99.2437,VALID,0.0679233,VALID,19.8927,VALID,61,VALID,0.380145,
2003-08-09, 01:49:00,VALID,916.722,VALID,0,VALID,99.2449,VALID,0.0509425,VALID,19.8927,VALID,50,VALID,0.289679,
2003-08-09, 01:50:00,VALID,916.707,VALID,0,VALID,99.2347,VALID,0.0509425,VALID,19.8987,VALID,50,VALID,0.18565,
2003-08-09, 01:51:00,VALID,916.687,VALID,0,VALID,99.2386,VALID,0.0169808,VALID,19.9054,VALID,50,VALID,0,
2003-08-09, 01:52:00,VALID,916.66,VALID,0,VALID,99.208,VALID,0.0169808,VALID,19.9019,VALID,50,VALID,0,
2003-08-09, 01:53:00,VALID,916.632,VALID,0,VALID,99.1979,VALID,0.0339617,VALID,19.9057,VALID,50,VALID,0.118973,
2003-08-09, 01:54:00,VALID,916.619,VALID,0,VALID,99.175,VALID,0,VALID,19.9062,VALID,50,VALID,0,
2003-08-09, 01:55:00,VALID,916.614,VALID,0,VALID,99.1483,VALID,0.0509425,VALID,19.8955,VALID,50,VALID,0.279139,
2003-08-09, 01:56:00,VALID,916.599,VALID,0,VALID,99.0237,VALID,0.0679233,VALID,19.8898,VALID,65,VALID,0.859992,
2003-08-09, 01:57:00,VALID,916.595,VALID,0,VALID,98.9626,VALID,0,VALID,19.857,VALID,82,VALID,0.967272,
2003-08-09, 01:58:00,VALID,916.574,VALID,0,VALID,98.8851,VALID,0.0169808,VALID,19.8478,VALID,87,VALID,0.945508,
2003-08-09, 01:59:00,VALID,916.549,VALID,0,VALID,98.8355,VALID,0.0169808,VALID,19.8441,VALID,89,VALID,0.759868,
2003-08-09, 02:00:00,VALID,916.545,VALID,0,VALID,98.7859,VALID,0.0169808,VALID,19.854,VALID,89,VALID,0.577257,
2003-08-09, 02:01:00,VALID,916.549,VALID,0,VALID,98.7134,VALID,0.0339617,VALID,19.8734,VALID,89,VALID,0.2398,
2003-08-09, 02:02:00,VALID,916.552,VALID,0,VALID,98.6193,VALID,0.0679233,VALID,19.8664,VALID,89,VALID,0.291735,
2003-08-09, 02:03:00,VALID,916.561,VALID,0,VALID,98.5659,VALID,0.0339617,VALID,19.8597,VALID,89,VALID,0.294271,
2003-08-09, 02:04:00,VALID,916.555,VALID,0,VALID,98.5163,VALID,0,VALID,19.8672,VALID,89,VALID,0.272485,
2003-08-09, 02:05:00,VALID,916.551,VALID,0,VALID,98.5087,VALID,0.0339617,VALID,19.8734,VALID,88,VALID,0.221073,
2003-08-09, 02:06:00,VALID,916.543,VALID,0,VALID,98.4273,VALID,0.0169808,VALID,19.8669,VALID,88,VALID,0.0376234,
2003-08-09, 02:07:00,VALID,916.527,VALID,0,VALID,98.3751,VALID,0.0169808,VALID,19.8475,VALID,88,VALID,0.000205592,
2003-08-09, 02:08:00,VALID,916.502,VALID,0,VALID,98.3217,VALID,0,VALID,19.8147,VALID,86,VALID,0.234184,
2003-08-09, 02:09:00,VALID,916.478,VALID,0,VALID,98.2569,VALID,0,VALID,19.7991,VALID,76,VALID,0.244038,
2003-08-09, 02:10:00,VALID,916.462,VALID,0,VALID,98.2899,VALID,-0.0849042,VALID,19.8008,VALID,76,VALID,0.00575658,
2003-08-09, 02:11:00,VALID,916.452,VALID,0,VALID,98.3027,VALID,-0.0679233,VALID,19.7775,VALID,76,VALID,0,
2003-08-09, 02:12:00,VALID,916.427,VALID,0,VALID,98.3268,VALID,-0.101885,VALID,19.7748,VALID,76,VALID,0.00358953,
2003-08-09, 02:13:00,VALID,916.42,VALID,0,VALID,98.3751,VALID,-0.101885,VALID,19.7782,VALID,76,VALID,0.000669643,
2003-08-09, 02:14:00,VALID,916.406,VALID,0,VALID,98.4082,VALID,-0.0849042,VALID,19.778,VALID,76,VALID,0.100329,
2003-08-09, 02:15:00,VALID,916.394,VALID,0,VALID,98.3484,VALID,-0.0679233,VALID,19.7678,VALID,76,VALID,0.0924831,
2003-08-09, 02:16:00,VALID,916.388,VALID,0,VALID,98.3039,VALID,-0.0849042,VALID,19.7685,VALID,76,VALID,0,
2003-08-09, 02:17:00,VALID,916.38,VALID,0,VALID,98.2569,VALID,-0.0509425,VALID,19.7492,VALID,76,VALID,0,
2003-08-09, 02:18:00,VALID,916.367,VALID,0,VALID,98.2874,VALID,-0.0339617,VALID,19.7325,VALID,69,VALID,0.206836,
2003-08-09, 02:19:00,VALID,916.348,VALID,0,VALID,98.3268,VALID,-0.118866,VALID,19.7427,VALID,49,VALID,0.229646,
2003-08-09, 02:20:00,VALID,916.34,VALID,0,VALID,98.2569,VALID,-0.0849042,VALID,19.736,VALID,49,VALID,0.236328,
2003-08-09, 02:21:00,VALID,916.324,VALID,0,VALID,98.2276,VALID,-0.101885,VALID,19.7263,VALID,49,VALID,0.147352,
2003-08-09, 02:22:00,VALID,916.31,VALID,0,VALID,98.2137,VALID,-0.0679233,VALID,19.7328,VALID,47,VALID,0.0857319,
2003-08-09, 02:23:00,VALID,916.285,VALID,0,VALID,98.2861,VALID,-0.0679233,VALID,19.7462,VALID,28,VALID,0.502387,
2003-08-09, 02:24:00,VALID,916.272,VALID,0,VALID,98.2149,VALID,-0.0849042,VALID,19.7591,VALID,28,VALID,0.188834,
2003-08-09, 02:25:00,VALID,916.243,VALID,0,VALID,98.089,VALID,0.0339617,VALID,19.7308,VALID,28,VALID,0.210515,
2003-08-09, 02:26:00,VALID,916.231,VALID,0,VALID,98.0191,VALID,0,VALID,19.7181,VALID,28,VALID,0.311678,
2003-08-09, 02:27:00,VALID,916.224,VALID,0,VALID,97.9657,VALID,0.0169808,VALID,19.7055,VALID,29,VALID,0.593133,
2003-08-09, 02:28:00,VALID,916.2,VALID,0,VALID,98.0572,VALID,0.0849042,VALID,19.6987,VALID,38,VALID,0.632813,
2003-08-09, 02:29:00,VALID,916.195,VALID,0,VALID,98.2276,VALID,0.0679233,VALID,19.7246,VALID,39,VALID,0.553043,
2003-08-09, 02:30:00,VALID,916.181,VALID,0,VALID,98.3472,VALID,0.0339617,VALID,19.7571,VALID,39,VALID,0.297081,
2003-08-09, 02:31:00,VALID,916.181,VALID,0,VALID,98.3192,VALID,0.0849042,VALID,19.7859,VALID,39,VALID,0.0533854,
2003-08-09, 02:32:00,VALID,916.179,VALID,0,VALID,98.1946,VALID,0.0169808,VALID,19.7897,VALID,39,VALID,0.28674,
2003-08-09, 02:33:00,VALID,916.171,VALID,0,VALID,98.1285,VALID,0.0169808,VALID,19.7869,VALID,39,VALID,0.133482,
2003-08-09, 02:34:00,VALID,916.168,VALID,0,VALID,98.1691,VALID,0.0169808,VALID,19.7864,VALID,39,VALID,0.212171,
2003-08-09, 02:35:00,VALID,916.164,VALID,0,VALID,98.1806,VALID,0,VALID,19.7964,VALID,39,VALID,0.103885,
2003-08-09, 02:36:00,VALID,916.166,VALID,0,VALID,98.1615,VALID,0,VALID,19.8058,VALID,39,VALID,0,
2003-08-09, 02:37:00,VALID,916.166,VALID,0,VALID,98.1208,VALID,0,VALID,19.8093,VALID,39,VALID,0,
2003-08-09, 02:38:00,VALID,916.169,VALID,0,VALID,98.0967,VALID,0.0169808,VALID,19.8093,VALID,39,VALID,0,
2003-08-09, 02:39:00,VALID,916.162,VALID,0,VALID,98.0839,VALID,0,VALID,19.8023,VALID,39,VALID,0,
2003-08-09, 02:40:00,VALID,916.151,VALID,0,VALID,98.1208,VALID,-0.0169808,VALID,19.7966,VALID,39,VALID,0,
2003-08-09, 02:41:00,VALID,916.167,VALID,0,VALID,98.1793,VALID,0,VALID,19.81,VALID,39,VALID,0,
2003-08-09, 02:42:00,VALID,916.167,VALID,0,VALID,98.1768,VALID,-0.0169808,VALID,19.8063,VALID,39,VALID,0,
2003-08-09, 02:43:00,VALID,916.166,VALID,0,VALID,98.1831,VALID,0,VALID,19.8026,VALID,39,VALID,0,
2003-08-09, 02:44:00,VALID,916.171,VALID,0,VALID,98.1653,VALID,-0.0169808,VALID,19.8098,VALID,39,VALID,0,
2003-08-09, 02:45:00,VALID,916.172,VALID,0,VALID,98.0623,VALID,-0.0679233,VALID,19.7902,VALID,39,VALID,0,
2003-08-09, 02:46:00,VALID,916.168,VALID,0,VALID,98.0585,VALID,-0.0339617,VALID,19.774,VALID,40,VALID,0.00822368,
2003-08-09, 02:47:00,VALID,916.168,VALID,0,VALID,98.07,VALID,0,VALID,19.7479,VALID,105,VALID,0.421053,
2003-08-09, 02:48:00,VALID,916.176,VALID,0,VALID,98.0992,VALID,-0.0339617,VALID,19.7621,VALID,125,VALID,0.453506,
2003-08-09, 02:49:00,VALID,916.164,VALID,0,VALID,98.1501,VALID,-0.0339617,VALID,19.7323,VALID,151,VALID,0.785156,
2003-08-09, 02:50:00,VALID,916.158,VALID,0,VALID,98.2416,VALID,-0.0339617,VALID,19.7228,VALID,149,VALID,0.621094,
2003-08-09, 02:51:00,VALID,916.15,VALID,0,VALID,98.3268,VALID,-0.0169808,VALID,19.7129,VALID,149,VALID,0.370877,
2003-08-09, 02:52:00,VALID,916.145,VALID,0,VALID,98.4362,VALID,-0.0169808,VALID,19.7161,VALID,150,VALID,0.265414,
2003-08-09, 02:53:00,VALID,916.153,VALID,0,VALID,98.5099,VALID,0,VALID,19.7194,VALID,150,VALID,0.221652,
2003-08-09, 02:54:00,VALID,916.168,VALID,0,VALID,98.5672,VALID,0,VALID,19.7288,VALID,150,VALID,0.140831,
2003-08-09, 02:55:00,VALID,916.175,VALID,0,VALID,98.604,VALID,-0.0339617,VALID,19.7286,VALID,150,VALID,0.33826,
2003-08-09, 02:56:00,VALID,916.189,VALID,0,VALID,98.646,VALID,-0.0339617,VALID,19.7487,VALID,150,VALID,0.249794,
2003-08-09, 02:57:00,VALID,916.191,VALID,0,VALID,98.6969,VALID,0,VALID,19.7318,VALID,150,VALID,0.0500422,
2003-08-09, 02:58:00,VALID,916.198,VALID,0,VALID,98.7337,VALID,-0.0169808,VALID,19.7447,VALID,150,VALID,0.0484375,
2003-08-09, 02:59:00,VALID,916.211,VALID,0,VALID,98.7617,VALID,0,VALID,19.7509,VALID,150,VALID,0.202097,
2003-08-09, 03:00:00,VALID,916.204,VALID,0,VALID,98.7897,VALID,-0.0169808,VALID,19.7713,VALID,150,VALID,0.246962,
2003-08-09, 03:01:00,VALID,916.201,VALID,0,VALID,98.8151,VALID,-0.0169808,VALID,19.7574,VALID,150,VALID,0.38954,
2003-08-09, 03:02:00,VALID,916.193,VALID,0,VALID,98.824,VALID,-0.0339617,VALID,19.7775,VALID,147,VALID,0.607113,
2003-08-09, 03:03:00,VALID,916.186,VALID,0,VALID,98.8304,VALID,-0.0169808,VALID,19.7673,VALID,145,VALID,0.702691,
2003-08-09, 03:04:00,VALID,916.179,VALID,0,VALID,98.8456,VALID,-0.0169808,VALID,19.777,VALID,143,VALID,0.834032,
2003-08-09, 03:05:00,VALID,916.171,VALID,0,VALID,98.8876,VALID,-0.0509425,VALID,19.7673,VALID,148,VALID,0.804054,
2003-08-09, 03:06:00,VALID,916.172,VALID,0,VALID,98.9385,VALID,0,VALID,19.7671,VALID,151,VALID,0.840872,
2003-08-09, 03:07:00,VALID,916.175,VALID,0,VALID,98.9817,VALID,-0.0169808,VALID,19.7673,VALID,139,VALID,0.718133,
2003-08-09, 03:08:00,VALID,916.176,VALID,0,VALID,98.969,VALID,0,VALID,19.7574,VALID,138,VALID,0.374809,
2003-08-09, 03:09:00,VALID,916.19,VALID,0,VALID,98.9804,VALID,-0.0169808,VALID,19.7549,VALID,129,VALID,0.109992,
2003-08-09, 03:10:00,VALID,916.207,VALID,0,VALID,98.9906,VALID,-0.0509425,VALID,19.7452,VALID,127,VALID,0,
2003-08-09, 03:11:00,VALID,916.224,VALID,0,VALID,98.8952,VALID,-0.0339617,VALID,19.729,VALID,38,VALID,0.530382,
2003-08-09, 03:12:00,VALID,916.236,VALID,0,VALID,98.8177,VALID,-0.0339617,VALID,19.6843,VALID,15,VALID,0.721706,
2003-08-09, 03:13:00,VALID,916.252,VALID,0,VALID,98.8177,VALID,-0.0679233,VALID,19.661,VALID,15,VALID,0.547321,
2003-08-09, 03:14:00,VALID,916.238,VALID,0,VALID,98.8431,VALID,-0.0169808,VALID,19.6416,VALID,15,VALID,0.431332,
2003-08-09, 03:15:00,VALID,916.221,VALID,0,VALID,98.8126,VALID,-0.0679233,VALID,19.6195,VALID,15,VALID,0.461993,
2003-08-09, 03:16:00,VALID,916.198,VALID,0,VALID,98.7795,VALID,-0.0169808,VALID,19.5835,VALID,15,VALID,0.14412,
2003-08-09, 03:17:00,VALID,916.176,VALID,0,VALID,98.7566,VALID,0,VALID,19.5614,VALID,15,VALID,0,
2003-08-09, 03:18:00,VALID,916.155,VALID,0,VALID,98.81,VALID,-0.0339617,VALID,19.542,VALID,15,VALID,0,
2003-08-09, 03:19:00,VALID,916.152,VALID,0,VALID,98.9016,VALID,0,VALID,19.5452,VALID,32,VALID,0.0370066,
2003-08-09, 03:20:00,VALID,916.157,VALID,0,VALID,98.8711,VALID,-0.0339617,VALID,19.535,VALID,136,VALID,0.442491,
2003-08-09, 03:21:00,VALID,916.167,VALID,0,VALID,98.8634,VALID,-0.0169808,VALID,19.5189,VALID,136,VALID,0.368056,
2003-08-09, 03:22:00,VALID,916.158,VALID,0,VALID,98.7897,VALID,-0.0169808,VALID,19.4767,VALID,124,VALID,0.162623,
2003-08-09, 03:23:00,VALID,916.166,VALID,0,VALID,98.7744,VALID,0.0169808,VALID,19.4479,VALID,109,VALID,0.448568,
2003-08-09, 03:24:00,VALID,916.16,VALID,0,VALID,98.9397,VALID,-0.0339617,VALID,19.4285,VALID,130,VALID,0.629383,
2003-08-09, 03:25:00,VALID,916.118,VALID,0,VALID,99.1228,VALID,0,VALID,19.4479,VALID,130,VALID,0.671875,
2003-08-09, 03:26:00,VALID,916.111,VALID,0,VALID,99.1941,VALID,-0.0339617,VALID,19.4737,VALID,121,VALID,0.426398,
2003-08-09, 03:27:00,VALID,916.099,VALID,0,VALID,99.1457,VALID,-0.0169808,VALID,19.4834,VALID,119,VALID,0.502467,
2003-08-09, 03:28:00,VALID,916.092,VALID,0,VALID,99.2182,VALID,-0.0509425,VALID,19.4806,VALID,117,VALID,0.744284,
2003-08-09, 03:29:00,VALID,916.105,VALID,0,VALID,99.292,VALID,-0.0169808,VALID,19.4968,VALID,117,VALID,0.612253,
2003-08-09, 03:30:00,VALID,916.115,VALID,0,VALID,99.3683,VALID,-0.0339617,VALID,19.5162,VALID,117,VALID,0.538857,
2003-08-09, 03:31:00,VALID,916.1,VALID,0,VALID,99.2678,VALID,-0.0339617,VALID,19.5159,VALID,117,VALID,0.515625,
2003-08-09, 03:32:00,VALID,916.093,VALID,0,VALID,99.3823,VALID,0,VALID,19.5286,VALID,117,VALID,0.183066,
2003-08-09, 03:33:00,VALID,916.091,VALID,0,VALID,99.2525,VALID,-0.0509425,VALID,19.5358,VALID,117,VALID,0.15,
2003-08-09, 03:34:00,VALID,916.078,VALID,0,VALID,99.2335,VALID,0,VALID,19.5288,VALID,115,VALID,0.359581,
2003-08-09, 03:35:00,VALID,916.064,VALID,0,VALID,99.4738,VALID,-0.0169808,VALID,19.5577,VALID,89,VALID,0.48712,
2003-08-09, 03:36:00,VALID,916.08,VALID,0,VALID,99.3174,VALID,0,VALID,19.616,VALID,78,VALID,0.367804,
2003-08-09, 03:37:00,VALID,916.077,VALID,0,VALID,99.1368,VALID,-0.0169808,VALID,19.6066,VALID,78,VALID,0.493877,
2003-08-09, 03:38:00,VALID,916.084,VALID,0,VALID,98.6994,VALID,-0.0169808,VALID,19.5581,VALID,66,VALID,0.574219,